GW6421 Weather Reports


time (UTC)temp
C
wind
direction
speed
KPH
gust
KPH
rain 1hr
cm
rain 24hr
cm
rain mn
cm
humidity
%
barometer
mb
20260507112009 20 234 4.8 11.3 0.00 0.25 0.18 74 1014.9
20260507111517 20 238 4.8 9.7 0.00 0.25 0.18 74 1014.9
20260507111008 19 220 4.8 11.3 0.00 0.25 0.18 74 1015.0
20260507110509 19 258 6.4 11.3 0.00 0.25 0.18 73 1015.1
20260507110023 19 271 6.4 11.3 0.00 0.25 0.18 74 1015.0
20260507105508 19 233 6.4 11.3 0.00 0.25 0.18 73 1014.9
20260507105012 19 284 3.2 11.3 0.00 0.25 0.18 73 1014.9
20260507104507 19 251 6.4 11.3 0.00 0.25 0.18 74 1014.9
20260507104007 19 207 3.2 9.7 0.00 0.25 0.18 75 1014.9
20260507103505 19 228 3.2 11.3 0.00 0.25 0.18 74 1015.0
20260507103011 19 239 3.2 11.3 0.00 0.25 0.18 74 1015.0
20260507102505 19 229 3.2 11.3 0.00 0.25 0.18 74 1015.0
20260507102007 19 228 6.4 11.3 0.00 0.25 0.18 73 1015.1
20260507101519 20 269 3.2 9.7 0.00 0.25 0.18 73 1015.0
20260507101009 19 238 3.2 9.7 0.00 0.25 0.18 73 1015.1
20260507100508 19 283 4.8 9.7 0.00 0.25 0.18 74 1015.1
20260507100022 19 249 3.2 6.4 0.00 0.25 0.18 71 1015.1
20260507095510 19 257 3.2 9.7 0.00 0.25 0.18 71 1015.0
20260507095009 20 220 1.6 9.7 0.00 0.25 0.18 73 1015.0
20260507094524 20 252 4.8 11.3 0.00 0.25 0.18 73 1015.0
20260507094013 20 239 3.2 11.3 0.00 0.25 0.18 73 1015.1
20260507093508 20 246 6.4 11.3 0.00 0.25 0.18 71 1015.3
20260507093008 20 259 3.2 11.3 0.00 0.25 0.18 73 1015.3
20260507092504 20 236 4.8 11.3 0.00 0.25 0.18 72 1015.2
20260507092006 20 270 4.8 8.0 0.00 0.25 0.18 72 1015.1
20260507091514 20 218 1.6 4.8 0.00 0.25 0.18 70 1015.1
20260507091009 20 230 0.0 3.2 0.00 0.25 0.18 72 1015.1
20260507090505 20 82 1.6 4.8 0.00 0.25 0.18 71 1015.1
20260507090020 20 168 1.6 6.4 0.00 0.25 0.18 74 1015.2
20260507085509 19 153 3.2 9.7 0.00 0.25 0.18 74 1015.2
20260507085008 19 141 1.6 9.7 0.00 0.25 0.18 76 1015.3
20260507084524 19 226 6.4 11.3 0.00 0.25 0.18 75 1015.3
20260507084013 19 174 1.6 11.3 0.00 0.25 0.18 74 1015.4
20260507083508 19 251 4.8 9.7 0.00 0.25 0.18 76 1015.3
20260507083024 19 242 4.8 9.7 0.00 0.25 0.18 74 1015.3
20260507082506 20 251 4.8 9.7 0.00 0.25 0.18 73 1015.3
20260507082011 20 139 1.6 6.4 0.00 0.25 0.18 77 1015.3
20260507081512 19 254 1.6 6.4 0.00 0.25 0.18 76 1015.2
20260507081007 19 218 1.6 6.4 0.00 0.25 0.18 75 1015.2
20260507080505 19 187 1.6 6.4 0.00 0.25 0.18 76 1015.3
20260507080017 19 130 1.6 6.4 0.00 0.25 0.18 79 1015.2
20260507075505 18 259 1.6 6.4 0.00 0.25 0.18 77 1015.3
20260507075007 18 231 1.6 9.7 0.00 0.25 0.18 79 1015.3
20260507074520 18 184 3.2 9.7 0.00 0.25 0.18 79 1015.2
20260507074012 18 237 1.6 6.4 0.00 0.25 0.18 81 1015.2
20260507073510 18 117 1.6 8.0 0.00 0.25 0.18 82 1015.3
20260507073024 17 71 1.6 8.0 0.00 0.25 0.18 83 1015.4
20260507072509 18 260 1.6 4.8 0.00 0.25 0.18 82 1015.4
20260507072011 18 248 1.6 4.8 0.00 0.25 0.18 84 1015.3
20260507071533 17 281 1.6 6.4 0.00 0.25 0.18 84 1015.4
20260507071011 17 120 1.6 6.4 0.00 0.25 0.18 85 1015.5
20260507070512 17 106 3.2 6.4 0.00 0.25 0.18 85 1015.4
20260507070014 17 92 1.6 6.4 0.00 0.25 0.18 86 1015.3
20260507065504 17 80 1.6 6.4 0.00 0.25 0.18 86 1015.3
20260507065009 17 283 1.6 6.4 0.00 0.25 0.18 87 1015.1
20260507064531 16 106 1.6 9.7 0.00 0.25 0.18 87 1015.1
20260507064011 16 138 1.6 9.7 0.00 0.25 0.18 88 1015.1
20260507063508 16 245 0.0 6.4 0.00 0.25 0.18 90 1015.0
20260507063024 16 191 1.6 6.4 0.00 0.25 0.18 89 1014.9
20260507062516 16 134 0.0 8.0 0.00 0.25 0.18 91 1014.9
20260507062010 16 136 0.0 8.0 0.00 0.25 0.18 91 1014.9
20260507061524 16 94 1.6 4.8 0.00 0.25 0.18 91 1014.9
20260507061010 15 88 1.6 3.2 0.00 0.25 0.18 92 1014.9
20260507060508 15 20 1.6 4.8 0.00 0.25 0.18 92 1014.9
20260507060026 15 132 1.6 4.8 0.00 0.25 0.18 94 1014.7
20260507055508 15 115 1.6 6.4 0.00 0.25 0.18 94 1014.6
20260507055018 14 75 3.2 6.4 0.00 0.25 0.18 94 1014.6
20260507054516 14 77 3.2 4.8 0.00 0.25 0.18 94 1014.6
20260507054006 13 86 1.6 4.8 0.00 0.25 0.18 94 1014.6
20260507053506 13 76 1.6 4.8 0.00 0.25 0.18 94 1014.6
20260507053023 13 68 1.6 4.8 0.00 0.25 0.18 94 1014.7
20260507052509 13 55 1.6 4.8 0.00 0.28 0.18 94 1014.6
20260507052007 13 43 1.6 3.2 0.00 0.28 0.18 94 1014.6
20260507051524 13 68 1.6 1.6 0.00 0.28 0.18 94 1014.6
20260507051009 13 68 0.0 3.2 0.00 0.28 0.18 94 1014.6
20260507050514 13 68 1.6 3.2 0.00 0.28 0.18 94 1014.5
20260507050037 12 63 1.6 3.2 0.00 0.28 0.18 94 1014.5
20260507045515 12 40 1.6 3.2 0.00 0.25 0.15 94 1014.4
20260507045008 12 53 1.6 3.2 0.00 0.25 0.15 94 1014.3
20260507044529 12 58 1.6 3.2 0.00 0.25 0.15 94 1014.3
20260507044011 12 60 1.6 3.2 0.00 0.25 0.15 94 1014.3
20260507043507 12 68 1.6 3.2 0.00 0.25 0.15 94 1014.2
20260507043018 12 65 1.6 3.2 0.00 0.28 0.15 94 1014.2
20260507042507 12 37 1.6 3.2 0.00 0.28 0.15 94 1014.2
20260507042007 12 46 1.6 3.2 0.00 0.28 0.15 94 1014.1
20260507041526 12 41 1.6 1.6 0.00 0.28 0.15 94 1014.1
20260507041007 12 41 0.0 3.2 0.00 0.30 0.15 94 1014.0
20260507040509 12 41 1.6 3.2 0.00 0.33 0.15 94 1014.0
20260507040026 12 30 0.0 3.2 0.00 0.36 0.15 94 1014.1
20260507035507 12 33 1.6 3.2 0.00 0.36 0.15 94 1013.9
20260507035011 13 110 0.0 3.2 0.00 0.36 0.15 94 1013.8
20260507034526 13 110 0.0 3.2 0.00 0.36 0.15 94 1013.8
20260507034011 13 119 0.0 1.6 0.00 0.36 0.15 94 1013.8
20260507033509 13 120 0.0 1.6 0.00 0.36 0.15 94 1013.8
20260507033028 13 99 0.0 3.2 0.00 0.38 0.15 94 1013.7
20260507032510 13 76 0.0 4.8 0.00 0.41 0.15 94 1013.8
20260507032012 13 75 1.6 4.8 0.00 0.43 0.15 94 1013.8
20260507031517 13 103 1.6 4.8 0.00 0.46 0.15 94 1013.7
20260507031007 13 86 1.6 4.8 0.00 0.46 0.15 94 1013.8
20260507030511 13 136 0.0 3.2 0.00 0.48 0.15 94 1013.8
20260507030028 13 96 1.6 4.8 0.00 0.48 0.15 94 1013.8
20260507025507 13 141 0.0 4.8 0.00 0.48 0.15 94 1013.8
20260507025011 13 88 1.6 3.2 0.00 0.48 0.15 94 1013.9
20260507024528 13 113 0.0 3.2 0.00 0.48 0.15 94 1013.9
20260507024009 13 134 0.0 3.2 0.00 0.48 0.15 94 1013.9
20260507023509 13 116 1.6 3.2 0.00 0.48 0.15 94 1013.9
20260507023010 13 105 0.0 4.8 0.00 0.48 0.15 94 1014.0
20260507022505 14 127 0.0 4.8 0.00 0.48 0.15 94 1014.0
20260507022006 14 117 0.0 3.2 0.00 0.48 0.15 94 1014.0
20260507021517 14 115 1.6 4.8 0.00 0.48 0.15 94 1014.0
20260507021005 14 90 0.0 6.4 0.00 0.48 0.15 94 1014.0
20260507020506 14 161 0.0 6.4 0.00 0.48 0.15 94 1014.0
20260507020020 14 129 0.0 4.8 0.00 0.48 0.15 94 1014.0
20260507015511 15 140 1.6 4.8 0.00 0.48 0.15 94 1014.1
20260507015007 15 94 0.0 3.2 0.00 0.48 0.15 94 1014.0
20260507014525 15 123 0.0 4.8 0.00 0.48 0.15 94 1014.0
20260507014009 15 107 0.0 4.8 0.00 0.48 0.15 94 1014.0
20260507013507 15 129 0.0 3.2 0.00 0.48 0.15 94 1014.0
20260507013025 15 114 0.0 4.8 0.00 0.48 0.15 94 1014.0
20260507012508 15 108 0.0 4.8 0.00 0.48 0.15 94 1014.0
20260507012010 15 103 0.0 6.4 0.00 0.48 0.15 94 1014.1
20260507011512 15 153 1.6 6.4 0.00 0.48 0.15 94 1014.0
20260507011005 15 103 1.6 4.8 0.00 0.48 0.15 94 1014.0
20260507010509 15 153 1.6 4.8 0.00 0.48 0.15 94 1014.0
20260507010017 15 110 0.0 4.8 0.00 0.48 0.15 93 1014.0
20260507005505 15 132 1.6 6.4 0.00 0.48 0.15 93 1014.1
20260507005010 15 139 1.6 6.4 0.00 0.48 0.15 93 1014.0
20260507004522 15 94 1.6 6.4 0.00 0.48 0.15 93 1014.0
20260507004008 15 77 1.6 4.8 0.00 0.48 0.15 93 1014.2
20260507003508 15 154 1.6 8.0 0.00 0.48 0.15 93 1014.2
20260507003025 15 190 0.0 8.0 0.00 0.48 0.15 93 1014.2
20260507002513 15 158 0.0 8.0 0.05 0.48 0.15 93 1014.1
20260507002014 15 127 3.2 8.0 0.08 0.48 0.15 93 1014.1
20260507001527 15 75 1.6 8.0 0.08 0.48 0.15 94 1014.0
20260507001010 15 72 1.6 6.4 0.08 0.48 0.15 93 1014.1
20260507000513 15 139 1.6 6.4 0.08 0.48 0.15 93 1014.1
20260507000015 16 219 1.6 4.8 0.08 0.48 0.15 94 1014.1
20260506235508 16 164 1.6 6.4 0.08 0.48 0.15 94 1014.1
20260506235009 16 145 0.0 6.4 0.10 0.48 0.15 94 1014.2
20260506234521 16 199 0.0 4.8 0.10 0.48 0.15 94 1014.2
20260506234008 16 236 0.0 3.2 0.10 0.48 0.15 93 1014.2
20260506233510 16 72 1.6 4.8 0.10 0.48 0.15 94 1014.2
20260506233024 16 123 0.0 4.8 0.08 0.46 0.13 94 1014.2
20260506232507 15 97 1.6 3.2 0.05 0.43 0.08 94 1014.3
20260506232007 15 120 0.0 1.6 0.03 0.41 0.08 93 1014.2
20260506231527 15 115 0.0 1.6 0.03 0.38 0.05 93 1014.2
20260506231012 15 115 0.0 1.6 0.03 0.38 0.05 93 1014.2
20260506230509 15 235 0.0 1.6 0.03 0.38 0.05 93 1014.2
20260506230029 15 249 0.0 4.8 0.05 0.38 0.05 93 1014.2
20260506225507 16 131 0.0 4.8 0.05 0.38 0.05 93 1014.1
20260506225012 16 127 0.0 4.8 0.05 0.36 0.03 93 1013.9
20260506224514 16 137 0.0 4.8 0.05 0.36 0.03 93 1014.0
20260506224007 16 131 1.6 3.2 0.08 0.36 0.03 93 1013.9
20260506223505 16 141 0.0 3.2 0.08 0.36 0.03 93 1013.9
20260506223018 16 101 1.6 3.2 0.08 0.36 0.03 93 1013.9
20260506222507 16 127 0.0 6.4 0.08 0.36 0.03 93 1013.9
20260506222014 16 91 1.6 6.4 0.08 0.36 0.03 93 1013.9
20260506221523 16 79 1.6 8.0 0.08 0.36 0.00 93 1014.0
20260506221013 16 150 1.6 9.7 0.08 0.36 0.00 93 1014.0
20260506220509 16 185 3.2 12.9 0.08 0.36 0.00 93 1014.1
20260506220035 16 199 3.2 12.9 0.08 0.33 0.00 93 1014.1
20260506215515 16 155 3.2 9.7 0.08 0.33 0.33 93 1014.1
20260506215010 16 74 4.8 9.7 0.05 0.30 0.30 92 1014.0
20260506214529 16 126 3.2 8.0 0.05 0.30 0.30 92 1014.0
20260506214010 16 86 1.6 12.9 0.03 0.28 0.28 92 1014.0
20260506213510 16 103 3.2 12.9 0.03 0.28 0.28 92 1014.2
20260506213018 16 132 3.2 14.5 0.03 0.28 0.28 92 1014.3
20260506212507 16 108 3.2 14.5 0.03 0.28 0.28 92 1014.3
20260506212007 16 157 1.6 9.7 0.00 0.28 0.28 92 1014.3
20260506211529 16 87 3.2 9.7 0.00 0.28 0.28 92 1014.3
20260506211008 16 82 1.6 8.0 0.00 0.28 0.28 92 1014.3
20260506210512 16 150 1.6 6.4 0.00 0.25 0.25 91 1014.4
20260506210028 16 150 1.6 8.0 0.00 0.25 0.25 91 1014.5
20260506205513 16 133 0.0 8.0 0.00 0.25 0.25 91 1014.4
20260506205010 16 166 1.6 8.0 0.00 0.25 0.25 91 1014.3
20260506204528 16 193 1.6 8.0 0.00 0.25 0.25 90 1014.3
20260506204011 16 122 1.6 6.4 0.00 0.25 0.25 90 1014.2
20260506203515 16 155 1.6 11.3 0.00 0.25 0.25 90 1014.2
20260506203031 16 50 4.8 11.3 0.00 0.25 0.25 90 1014.1
20260506202510 16 57 3.2 8.0 0.00 0.25 0.25 90 1014.1
20260506202012 16 110 1.6 9.7 0.00 0.25 0.25 90 1014.1
20260506201529 16 94 3.2 11.3 0.00 0.25 0.25 89 1014.1
20260506201007 16 141 1.6 11.3 0.00 0.25 0.25 89 1014.0
20260506200509 16 100 3.2 9.7 0.00 0.25 0.25 89 1014.0
20260506200023 16 125 3.2 8.0 0.00 0.25 0.25 89 1013.9
20260506195508 16 112 3.2 9.7 0.00 0.25 0.25 89 1014.0
20260506195011 16 92 3.2 9.7 0.00 0.25 0.25 89 1014.0
20260506194524 16 89 1.6 9.7 0.00 0.25 0.25 88 1014.0
20260506194009 16 122 1.6 8.0 0.00 0.25 0.25 88 1013.9
20260506193512 16 96 3.2 9.7 0.00 0.25 0.25 87 1013.8
20260506193027 16 141 3.2 9.7 0.00 0.25 0.25 87 1013.7
20260506150510 18 117 3.2 14.5 0.00 0.28 0.25 83 1013.1
20260506150008 18 68 6.4 24.1 0.00 0.28 0.25 82 1013.0
20260506145506 18 110 4.8 24.1 0.00 0.28 0.25 83 1013.1
20260506145007 18 162 8.0 20.9 0.00 0.30 0.25 82 1013.0
20260506144509 18 140 4.8 20.9 0.00 0.33 0.25 82 1013.0
20260506144009 18 82 4.8 17.7 0.00 0.38 0.25 82 1013.0
20260506143504 18 124 8.0 19.3 0.00 0.41 0.25 81 1013.0
20260506143018 18 114 8.0 19.3 0.00 0.41 0.25 81 1012.9
20260506142509 18 259 6.4 17.7 0.00 0.41 0.25 80 1012.9
20260506142014 18 154 4.8 20.9 0.00 0.41 0.25 80 1013.0
20260506141515 18 113 8.0 20.9 0.00 0.41 0.25 79 1013.0
20260506141011 18 124 4.8 16.1 0.00 0.41 0.25 79 1013.2
20260506140508 19 152 4.8 12.9 0.00 0.41 0.25 79 1013.2
20260506140026 19 179 4.8 12.9 0.00 0.41 0.25 79 1013.3
20260506135507 19 292 3.2 11.3 0.00 0.41 0.25 79 1013.4
20260506135007 19 148 1.6 16.1 0.00 0.41 0.25 79 1013.5
20260506134510 18 79 6.4 19.3 0.00 0.41 0.25 79 1013.4
20260506134004 19 124 6.4 20.9 0.00 0.41 0.25 78 1013.4
20260506133506 19 130 6.4 20.9 0.00 0.41 0.25 79 1013.4
20260506133025 18 152 4.8 16.1 0.00 0.41 0.25 80 1013.4
20260506132513 18 111 4.8 16.1 0.00 0.41 0.25 80 1013.4
20260506132008 18 103 4.8 17.7 0.00 0.41 0.25 80 1013.4
20260506131518 18 102 1.6 17.7 0.00 0.41 0.25 80 1013.5
20260506131008 19 226 3.2 14.5 0.00 0.41 0.25 79 1013.5
20260506130508 19 140 3.2 16.1 0.00 0.41 0.25 79 1013.6
20260506130019 18 81 4.8 16.1 0.00 0.41 0.25 80 1013.7
20260506125509 18 137 4.8 22.5 0.00 0.41 0.25 79 1013.7
20260506125012 18 103 4.8 22.5 0.00 0.41 0.25 80 1013.7
20260506124522 18 80 4.8 16.1 0.00 0.41 0.25 80 1013.7
20260506124008 18 102 6.4 16.1 0.00 0.41 0.25 81 1013.6
20260506123507 18 66 6.4 19.3 0.00 0.41 0.25 82 1013.6
20260506123008 17 61 4.8 19.3 0.00 0.41 0.25 82 1013.7
20260506122508 18 135 4.8 14.5 0.00 0.41 0.25 82 1013.7
20260506122011 18 189 3.2 11.3 0.00 0.41 0.25 82 1013.9
20260506121514 18 135 3.2 17.7 0.00 0.41 0.25 81 1013.9
20260506121007 18 144 3.2 17.7 0.00 0.41 0.25 80 1013.8
20260506120506 18 45 6.4 16.1 0.00 0.41 0.25 79 1013.8
20260506120021 18 191 4.8 19.3 0.00 0.41 0.25 80 1013.9
20260506115511 18 114 4.8 19.3 0.00 0.41 0.25 81 1013.8
20260506115009 18 155 6.4 24.1 0.00 0.41 0.25 81 1013.8
20260506114533 18 86 4.8 24.1 0.00 0.41 0.25 81 1013.8
20260506114010 18 103 8.0 24.1 0.00 0.41 0.25 80 1013.7
20260506113510 18 110 4.8 12.9 0.00 0.41 0.25 80 1013.8
20260506113020 18 67 3.2 20.9 0.00 0.41 0.25 80 1013.8
20260506112512 18 133 4.8 20.9 0.00 0.41 0.25 79 1013.8